Time,TemperatureF,DewpointF,PressureIn,WindDirection,WindDirectionDegrees,WindSpeedMPH,WindSpeedGustMPH,Humidity,HourlyPrecipIn,Conditions,Clouds,dailyrainin,SoftwareType,DateUTC
2013-06-24 00:11:00,73.5,69.0,29.93,WSW,248,0.0,5.0,85,0.00,,,0.23,weatherlink.com 1.10,2013-06-24 04:11:00,
2013-06-24 00:26:00,73.4,69.0,29.93,SW,224,0.0,8.0,85,0.00,,,0.00,weatherlink.com 1.10,2013-06-24 04:26:00,
2013-06-24 00:41:00,73.0,68.0,29.92,SW,219,0.0,8.0,85,0.00,,,0.00,weatherlink.com 1.10,2013-06-24 04:41:00,
2013-06-24 00:56:00,72.9,68.0,29.92,SSW,205,5.0,6.0,85,0.00,,,0.00,weatherlink.com 1.10,2013-06-24 04:56:00,
2013-06-24 01:12:00,72.8,68.0,29.92,SW,230,1.0,5.0,85,0.00,,,0.00,weatherlink.com 1.10,2013-06-24 05:12:00,
2013-06-24 01:27:00,72.7,68.0,29.92,SW,233,1.0,9.0,84,0.00,,,0.00,weatherlink.com 1.10,2013-06-24 05:27:00,
2013-06-24 01:42:00,72.8,68.0,29.92,WSW,251,0.0,7.0,84,0.00,,,0.00,weatherlink.com 1.10,2013-06-24 05:42:00,
2013-06-24 01:57:00,72.4,68.0,29.92,SW,214,0.0,9.0,85,0.00,,,0.00,weatherlink.com 1.10,2013-06-24 05:57:00,
2013-06-24 02:27:00,72.4,67.0,29.92,SW,223,1.0,6.0,84,0.00,,,0.00,weatherlink.com 1.10,2013-06-24 06:27:00,
2013-06-24 02:42:00,72.5,67.0,29.91,SW,219,0.0,8.0,84,0.00,,,0.00,weatherlink.com 1.10,2013-06-24 06:42:00,
2013-06-24 02:57:00,72.5,67.0,29.91,SSW,206,4.0,7.0,84,0.00,,,0.00,weatherlink.com 1.10,2013-06-24 06:57:00,
2013-06-24 03:12:00,72.5,67.0,29.91,SW,218,0.0,12.0,84,0.00,,,0.00,weatherlink.com 1.10,2013-06-24 07:12:00,
2013-06-24 03:27:00,72.4,68.0,29.91,SW,218,0.0,7.0,85,0.00,,,0.00,weatherlink.com 1.10,2013-06-24 07:27:00,
2013-06-24 03:42:00,72.1,67.0,29.91,SSW,206,0.0,7.0,85,0.00,,,0.00,weatherlink.com 1.10,2013-06-24 07:42:00,
2013-06-24 03:57:00,72.0,67.0,29.91,SW,226,0.0,4.0,85,0.00,,,0.00,weatherlink.com 1.10,2013-06-24 07:57:00,
2013-06-24 04:12:00,71.6,67.0,29.91,SW,217,1.0,6.0,86,0.00,,,0.00,weatherlink.com 1.10,2013-06-24 08:12:00,
2013-06-24 04:27:00,71.6,67.0,29.91,SW,224,1.0,2.0,86,0.00,,,0.00,weatherlink.com 1.10,2013-06-24 08:27:00,
2013-06-24 04:57:00,71.2,67.0,29.91,SW,228,0.0,3.0,87,0.00,,,0.00,weatherlink.com 1.10,2013-06-24 08:57:00,
2013-06-24 05:12:00,71.0,67.0,29.92,SW,223,0.0,2.0,87,0.00,,,0.00,weatherlink.com 1.10,2013-06-24 09:12:00,
2013-06-24 05:57:00,71.8,68.0,29.92,WNW,283,0.0,3.0,86,0.00,,,0.00,weatherlink.com 1.10,2013-06-24 09:57:00,
2013-06-24 06:12:00,72.4,68.0,29.93,West,275,1.0,1.0,86,0.00,,,0.00,weatherlink.com 1.10,2013-06-24 10:12:00,
2013-06-24 06:42:00,73.1,68.0,29.93,SW,232,1.0,9.0,85,0.00,,,0.00,weatherlink.com 1.10,2013-06-24 10:42:00,
2013-06-24 06:57:00,73.1,69.0,29.93,SSW,207,1.0,2.0,86,0.00,,,0.00,weatherlink.com 1.10,2013-06-24 10:57:00,
2013-06-24 07:27:00,76.1,70.0,29.94,SW,236,3.0,5.0,82,0.00,,,0.00,weatherlink.com 1.10,2013-06-24 11:27:00,
2013-06-24 07:42:00,76.8,71.0,29.94,SW,215,2.0,8.0,81,0.00,,,0.00,weatherlink.com 1.10,2013-06-24 11:42:00,
2013-06-24 07:57:00,78.1,71.0,29.94,SW,215,1.0,5.0,79,0.00,,,0.00,weatherlink.com 1.10,2013-06-24 11:57:00,
2013-06-24 08:12:00,78.7,71.0,29.94,SW,214,0.0,7.0,77,0.00,,,0.00,weatherlink.com 1.10,2013-06-24 12:12:00,
2013-06-24 08:27:00,79.5,72.0,29.94,WSW,254,1.0,4.0,77,0.00,,,0.00,weatherlink.com 1.10,2013-06-24 12:27:00,
2013-06-24 08:42:00,79.9,72.0,29.94,SW,235,2.0,5.0,77,0.00,,,0.00,weatherlink.com 1.10,2013-06-24 12:42:00,
2013-06-24 08:57:00,80.3,72.0,29.93,SSW,210,1.0,6.0,76,0.00,,,0.00,weatherlink.com 1.10,2013-06-24 12:57:00,
2013-06-24 09:12:00,80.5,72.0,29.93,SSW,209,1.0,5.0,75,0.00,,,0.00,weatherlink.com 1.10,2013-06-24 13:12:00,
2013-06-24 09:27:00,81.3,72.0,29.93,SW,229,0.0,4.0,74,0.00,,,0.00,weatherlink.com 1.10,2013-06-24 13:27:00,
2013-06-24 09:42:00,82.6,71.0,29.93,WSW,241,0.0,4.0,68,0.00,,,0.00,weatherlink.com 1.10,2013-06-24 13:42:00,
2013-06-24 10:13:00,83.7,72.0,29.92,WSW,244,1.0,6.0,67,0.00,,,0.00,weatherlink.com 1.10,2013-06-24 14:13:00,
2013-06-24 10:28:00,84.3,72.0,29.92,SSW,205,0.0,4.0,66,0.00,,,0.00,weatherlink.com 1.10,2013-06-24 14:28:00,
2013-06-24 10:43:00,85.3,73.0,29.92,SSW,207,2.0,7.0,66,0.00,,,0.00,weatherlink.com 1.10,2013-06-24 14:43:00,
2013-06-24 11:13:00,86.6,72.0,29.91,SW,221,1.0,5.0,62,0.00,,,0.00,weatherlink.com 1.10,2013-06-24 15:13:00,
2013-06-24 12:28:00,89.5,74.0,29.90,SSW,210,0.0,4.0,60,0.00,,,0.00,weatherlink.com 1.10,2013-06-24 16:28:00,
2013-06-24 12:58:00,90.4,72.0,29.89,SSW,209,1.0,4.0,55,0.00,,,0.00,weatherlink.com 1.10,2013-06-24 16:58:00,
2013-06-24 13:13:00,90.8,74.0,29.89,SW,232,1.0,5.0,58,0.00,,,0.00,weatherlink.com 1.10,2013-06-24 17:13:00,
2013-06-24 13:28:00,90.0,75.0,29.89,WSW,253,0.0,6.0,61,0.00,,,0.00,weatherlink.com 1.10,2013-06-24 17:28:00,
2013-06-24 13:43:00,88.1,74.0,29.88,WSW,257,0.0,3.0,63,0.00,,,0.00,weatherlink.com 1.10,2013-06-24 17:43:00,
2013-06-24 13:58:00,84.0,70.0,29.88,NW,313,2.0,8.0,63,0.00,,,0.00,weatherlink.com 1.10,2013-06-24 17:58:00,
2013-06-24 14:13:00,80.8,71.0,29.87,West,265,0.0,4.0,72,0.00,,,0.00,weatherlink.com 1.10,2013-06-24 18:13:00,
2013-06-24 14:43:00,81.0,72.0,29.88,SW,219,0.0,1.0,74,0.00,,,0.00,weatherlink.com 1.10,2013-06-24 18:43:00,
2013-06-24 14:58:00,80.4,72.0,29.88,WSW,244,0.0,4.0,75,0.00,,,0.00,weatherlink.com 1.10,2013-06-24 18:58:00,
2013-06-24 15:13:00,80.1,73.0,29.88,WSW,244,0.0,1.0,78,0.00,,,0.00,weatherlink.com 1.10,2013-06-24 19:13:00,
2013-06-24 15:28:00,79.0,74.0,29.88,WSW,246,0.0,2.0,83,0.00,,,0.00,weatherlink.com 1.10,2013-06-24 19:28:00,
2013-06-24 15:43:00,78.3,74.0,29.87,WSW,247,0.0,6.0,86,0.00,,,0.00,weatherlink.com 1.10,2013-06-24 19:43:00,
2013-06-24 15:58:00,78.8,74.0,29.86,WSW,246,0.0,4.0,86,0.00,,,0.00,weatherlink.com 1.10,2013-06-24 19:58:00,
2013-06-24 16:13:00,79.5,74.0,29.85,West,261,0.0,5.0,84,0.00,,,0.00,weatherlink.com 1.10,2013-06-24 20:13:00,
2013-06-24 16:43:00,82.1,74.0,29.84,SSW,206,0.0,3.0,75,0.00,,,0.00,weatherlink.com 1.10,2013-06-24 20:43:00,
2013-06-24 16:58:00,82.3,73.0,29.85,NNE,19,2.0,9.0,74,0.00,,,0.00,weatherlink.com 1.10,2013-06-24 20:58:00,
2013-06-24 17:13:00,81.5,74.0,29.85,SW,218,1.0,5.0,77,0.00,,,0.00,weatherlink.com 1.10,2013-06-24 21:13:00,
2013-06-24 17:28:00,82.0,74.0,29.86,WSW,248,0.0,2.0,76,0.00,,,0.00,weatherlink.com 1.10,2013-06-24 21:28:00,
2013-06-24 17:43:00,81.6,74.0,29.85,WSW,240,0.0,5.0,78,0.00,,,0.00,weatherlink.com 1.10,2013-06-24 21:43:00,
2013-06-24 17:58:00,81.3,75.0,29.84,SW,217,2.0,4.0,80,0.00,,,0.00,weatherlink.com 1.10,2013-06-24 21:58:00,
2013-06-24 18:14:00,80.3,73.0,29.84,SW,219,3.0,6.0,78,0.00,,,0.00,weatherlink.com 1.10,2013-06-24 22:14:00,
2013-06-24 18:29:00,79.5,73.0,29.84,West,273,0.0,6.0,79,0.00,,,0.00,weatherlink.com 1.10,2013-06-24 22:29:00,
2013-06-24 18:59:00,78.6,73.0,29.83,SSW,210,3.0,7.0,82,0.00,,,0.00,weatherlink.com 1.10,2013-06-24 22:59:00,
2013-06-24 19:14:00,78.5,73.0,29.83,WSW,243,1.0,7.0,82,0.00,,,0.00,weatherlink.com 1.10,2013-06-24 23:14:00,
2013-06-24 19:29:00,78.1,72.0,29.83,SW,220,1.0,5.0,82,0.00,,,0.00,weatherlink.com 1.10,2013-06-24 23:29:00,
2013-06-24 19:44:00,77.5,72.0,29.84,SW,219,2.0,4.0,83,0.00,,,0.00,weatherlink.com 1.10,2013-06-24 23:44:00,
2013-06-24 19:59:00,77.0,72.0,29.85,WSW,240,0.0,10.0,83,0.00,,,0.00,weatherlink.com 1.10,2013-06-24 23:59:00,
2013-06-24 20:14:00,76.7,71.0,29.86,SW,218,0.0,7.0,83,0.00,,,0.00,weatherlink.com 1.10,2013-06-25 00:14:00,
2013-06-24 20:29:00,76.6,71.0,29.86,WSW,257,5.0,13.0,83,0.00,,,0.00,weatherlink.com 1.10,2013-06-25 00:29:00,
2013-06-24 20:59:00,75.8,70.0,29.85,SSW,211,5.0,12.0,83,0.00,,,0.00,weatherlink.com 1.10,2013-06-25 00:59:00,
2013-06-24 21:29:00,75.0,68.0,29.92,North,354,3.0,12.0,78,0.01,,,0.01,weatherlink.com 1.10,2013-06-25 01:29:00,
2013-06-24 21:44:00,69.7,67.0,29.91,NE,50,4.0,13.0,90,0.21,,,0.21,weatherlink.com 1.10,2013-06-25 01:44:00,
2013-06-24 21:59:00,68.3,67.0,29.92,NE,46,3.0,4.0,95,0.24,,,0.24,weatherlink.com 1.10,2013-06-25 01:59:00,
2013-06-24 22:29:00,68.6,67.0,29.90,NE,55,2.0,5.0,95,0.23,,,0.24,weatherlink.com 1.10,2013-06-25 02:29:00,
2013-06-24 22:44:00,68.6,67.0,29.90,NW,313,0.0,2.0,95,0.03,,,0.24,weatherlink.com 1.10,2013-06-25 02:44:00,
2013-06-24 22:59:00,68.5,67.0,29.89,SW,232,0.0,4.0,96,0.00,,,0.24,weatherlink.com 1.10,2013-06-25 02:59:00,
2013-06-24 23:14:00,68.4,67.0,29.89,WSW,258,1.0,3.0,96,0.00,,,0.24,weatherlink.com 1.10,2013-06-25 03:14:00,